Regional Weather Roundup
Issued by NWS

Home | Current Version | Previous Version | Text Only | Print | Product List | Glossary On
Versions: 1 2 3 4 5 6 7 8 9 10 11 12 13 14 15 16 17 18 19 20 21 22 23 24 25 26 27 28 29 30 31 32 33 34 35 36 37 38 39 40 41 42 43 44 45 46 47 48 49 50
000
ASUS45 KBOI 270310
RWRID

IDAHO REGIONAL WEATHER ROUNDUP
NATIONAL WEATHER SERVICE BOISE ID
800 PM MST SUN FEB 26 2017

NOTE: "FAIR" INDICATES FEW OR NO CLOUDS BELOW 12000 FEET
WITH NO SIGNIFICANT WEATHER AND/OR OBSTRUCTIONS TO VISIBILITY

IDZ012-014-270400-
SOUTHWEST IDAHO


CITY           SKY/WX    TMP DP  RH WIND       PRES   REMARKS
BOISE          FAIR      32  27  81 SE9       29.68F WCI  24
CALDWELL       MOCLDY    29  28  96 NE6       29.69F WCI  23
MOUNTAIN HOME  MOCLDY    32  23  69 SE7       29.69R WCI  26
$$

IDZ016-017-270400-
SOUTHCENTRAL IDAHO


CITY           SKY/WX    TMP DP  RH WIND       PRES   REMARKS
BURLEY         CLOUDY    34  21  59 CALM      29.65F
JEROME           N/A    N/A N/A N/A MISG      29.70R
TWIN FALLS     LGT SNOW  27  21  78 NW18      29.68R WCI  14
$$

IDZ019>023-270400-
SOUTHEAST IDAHO


CITY           SKY/WX    TMP DP  RH WIND       PRES   REMARKS
IDAHO FALLS    CLOUDY    25  21  85 SE7       29.69F WCI  17
POCATELLO      CLOUDY    29  18  63 S17       29.67F WCI  17
REXBURG        LGT SNOW  24  21  88 S6        29.68F FOG     WCI  17
$$

IDZ006-010-011-018-031-032-270400-
CENTRAL IDAHO MOUNTAINS


CITY           SKY/WX    TMP DP  RH WIND       PRES   REMARKS
MCCALL         LGT SNOW  22  18  85 CALM      29.56S FOG
HAILEY         LGT SNOW  21  19  93 CALM      29.65F VSB 3/4
STANLEY          N/A     18  13  80 S6        29.56F WCI  10
SALMON         CLOUDY    28  16  59 CALM      29.60S
CHALLIS        FAIR      23  12  62 S8        29.58F WCI  14
$$

IDZ002-004-006-007-026-270400-
NORTHERN IDAHO


CITY           SKY/WX    TMP DP  RH WIND       PRES   REMARKS
LEWISTON       LGT SNOW  32  31  96 S3        29.68S FOG
LOWELL           N/A     33  31  92 CALM      29.69S
COEUR D`ALENE  FLURRIES  28  27  96 N3        29.65S
MULLAN PASS    LGT SNOW  17  15  92 VRB3      29.47S FOG
$$



USA.gov is the U.S. government's official web portal to all federal, state and local government web resources and services.